JZR1884 OIAW-OKKK

Flight info

Callsign JZR1884
Flight time 0h 29m
Altitude 13000
Route GABSU DCT SIDAD
Aircraft A320/M-SDE3FGHIRWY/LB1

Departure

Time 2026-05-05 13:34
Airport Qasem Soleimani International Airport (OIAW)

Arrival

Time 2026-05-05 14:04
Airport Kuwait International Airport (OKKK)
Time Latitude Longitude Altitude Speed Heading
2026-05-05 13:11 31.34298 48.74853 76 ft 0 kts 155°
2026-05-05 13:23 31.34316 48.74846 69 ft 4 kts 182°
2026-05-05 13:23 31.34339 48.74855 77 ft 3 kts 214°
2026-05-05 13:23 31.34343 48.74858 79 ft 0 kts 214°
2026-05-05 13:26 31.34339 48.74860 82 ft 1 kts 176°
2026-05-05 13:26 31.34331 48.74881 69 ft 5 kts 107°
2026-05-05 13:27 31.34335 48.74932 75 ft 6 kts 60°
2026-05-05 13:27 31.34344 48.74955 83 ft 0 kts 73°
2026-05-05 13:29 31.34347 48.74969 56 ft 6 kts 80°
2026-05-05 13:30 31.34346 48.75050 66 ft 14 kts 96°
2026-05-05 13:30 31.34311 48.75193 60 ft 22 kts 114°
2026-05-05 13:30 31.34218 48.75373 57 ft 30 kts 125°
2026-05-05 13:30 31.34083 48.75602 61 ft 39 kts 124°
2026-05-05 13:31 31.33925 48.75865 56 ft 39 kts 126°
2026-05-05 13:31 31.33784 48.76118 61 ft 34 kts 124°
2026-05-05 13:31 31.33652 48.76344 57 ft 35 kts 125°
2026-05-05 13:31 31.33514 48.76575 59 ft 35 kts 124°
2026-05-05 13:32 31.33374 48.76817 62 ft 35 kts 123°
2026-05-05 13:32 31.33244 48.77040 63 ft 32 kts 125°
2026-05-05 13:32 31.33114 48.77260 62 ft 33 kts 123°
2026-05-05 13:32 31.32982 48.77485 55 ft 35 kts 125°
2026-05-05 13:33 31.32873 48.77584 59 ft 10 kts 131°
2026-05-05 13:33 31.32892 48.77622 57 ft 6 kts
2026-05-05 13:33 31.32925 48.77590 55 ft 7 kts 306°
2026-05-05 13:33 31.32935 48.77571 54 ft 0 kts 302°
2026-05-05 13:34 31.33053 48.77360 59 ft 68 kts 304°
2026-05-05 13:34 31.33435 48.76709 59 ft 128 kts 305°
2026-05-05 13:34 31.34026 48.75683 114 ft 169 kts 301°
2026-05-05 13:34 31.34713 48.74538 688 ft 171 kts 299°
2026-05-05 13:35 31.35382 48.73380 1252 ft 172 kts 292°
2026-05-05 13:35 31.35847 48.72100 1526 ft 180 kts 277°
2026-05-05 13:35 31.36005 48.70589 1674 ft 196 kts 262°
2026-05-05 13:35 31.35767 48.68954 1829 ft 214 kts 247°
2026-05-05 13:36 31.35046 48.67343 2013 ft 234 kts 228°
2026-05-05 13:36 31.33811 48.66016 2388 ft 248 kts 209°
2026-05-05 13:36 31.32206 48.65267 3040 ft 252 kts 191°
2026-05-05 13:36 31.30437 48.65179 3729 ft 257 kts 180°
2026-05-05 13:37 31.28638 48.65243 4473 ft 260 kts 180°
2026-05-05 13:37 31.26828 48.65309 5265 ft 261 kts 179°
2026-05-05 13:37 31.25002 48.65377 5987 ft 265 kts 179°
2026-05-05 13:37 31.23149 48.65445 6743 ft 267 kts 180°
2026-05-05 13:38 31.21279 48.65512 7461 ft 271 kts 180°
2026-05-05 13:38 31.19379 48.65577 8176 ft 275 kts 180°
2026-05-05 13:38 31.17459 48.65643 8915 ft 278 kts 180°
2026-05-05 13:38 31.15518 48.65712 9682 ft 280 kts 181°
2026-05-05 13:39 31.13527 48.65624 10072 ft 295 kts 192°
2026-05-05 13:39 31.11442 48.65128 10247 ft 318 kts 194°
2026-05-05 13:39 31.09361 48.64049 10373 ft 339 kts 213°
2026-05-05 13:39 31.07397 48.62441 10775 ft 350 kts 214°
2026-05-05 13:40 31.05347 48.60876 11419 ft 353 kts 211°
2026-05-05 13:40 31.03188 48.59509 12124 ft 354 kts 208°
2026-05-05 13:40 31.00976 48.58243 12554 ft 355 kts 207°
2026-05-05 13:40 30.98754 48.56996 12672 ft 358 kts 207°
2026-05-05 13:41 30.96458 48.55675 12701 ft 377 kts 208°
2026-05-05 13:41 30.94088 48.54264 12704 ft 384 kts 209°
2026-05-05 13:41 30.91734 48.52820 12709 ft 385 kts 209°
2026-05-05 13:41 30.89254 48.51613 12707 ft 388 kts 199°
2026-05-05 13:42 30.86602 48.50982 12706 ft 392 kts 189°
2026-05-05 13:42 30.83871 48.50878 12711 ft 394 kts 184°
2026-05-05 13:42 30.81132 48.50845 12709 ft 394 kts 184°
2026-05-05 13:42 30.78394 48.50814 12709 ft 394 kts 184°
2026-05-05 13:43 30.75641 48.50781 12714 ft 394 kts 184°
2026-05-05 13:43 30.72906 48.50749 12715 ft 394 kts 184°
2026-05-05 13:43 30.70166 48.50715 12715 ft 394 kts 184°
2026-05-05 13:43 30.67421 48.50680 12718 ft 394 kts 184°
2026-05-05 13:44 30.64683 48.50644 12720 ft 394 kts 184°
2026-05-05 13:44 30.61947 48.50606 12721 ft 394 kts 184°
2026-05-05 13:44 30.59202 48.50567 12724 ft 394 kts 184°
2026-05-05 13:44 30.56464 48.50526 12723 ft 394 kts 184°
2026-05-05 13:45 30.53716 48.50484 12720 ft 394 kts 184°
2026-05-05 13:45 30.50979 48.50440 12721 ft 394 kts 184°
2026-05-05 13:45 30.48244 48.50397 12708 ft 394 kts 185°
2026-05-05 13:45 30.45497 48.50357 12708 ft 394 kts 185°
2026-05-05 13:46 30.42751 48.50320 12708 ft 394 kts 184°
2026-05-05 13:46 30.40046 48.50284 12713 ft 395 kts 184°
2026-05-05 13:46 30.37297 48.50247 12714 ft 395 kts 185°
2026-05-05 13:46 30.34552 48.50210 12717 ft 395 kts 184°
2026-05-05 13:47 30.31803 48.50172 12720 ft 395 kts 184°
2026-05-05 13:47 30.29051 48.50133 12712 ft 395 kts 185°
2026-05-05 13:47 30.26267 48.50092 12712 ft 395 kts 185°
2026-05-05 13:47 30.23554 48.50055 12715 ft 396 kts 185°
2026-05-05 13:48 30.20799 48.50018 12728 ft 396 kts 185°
2026-05-05 13:48 30.18939 48.49992 12730 ft 396 kts 185°
2026-05-05 13:48 30.15295 48.49941 12733 ft 396 kts 185°
2026-05-05 13:48 30.13427 48.49916 12735 ft 396 kts 185°
2026-05-05 13:49 30.10677 48.49881 12734 ft 396 kts 185°
2026-05-05 13:49 30.07924 48.49845 12734 ft 396 kts 185°
2026-05-05 13:49 30.05163 48.49807 12724 ft 396 kts 185°
2026-05-05 13:49 30.02395 48.49767 12725 ft 397 kts 185°
2026-05-05 13:50 29.99647 48.49726 12724 ft 397 kts 185°
2026-05-05 13:50 29.96882 48.49686 12729 ft 397 kts 185°
2026-05-05 13:50 29.94119 48.49648 12727 ft 397 kts 185°
2026-05-05 13:50 29.91357 48.49554 12730 ft 395 kts 189°
2026-05-05 13:51 29.88693 48.48935 12731 ft 390 kts 200°
2026-05-05 13:51 29.86245 48.47730 12728 ft 386 kts 211°
2026-05-05 13:51 29.84014 48.45951 12728 ft 384 kts 221°
2026-05-05 13:51 29.82023 48.43906 12726 ft 385 kts 223°
2026-05-05 13:52 29.80025 48.41853 12726 ft 385 kts 223°
2026-05-05 13:52 29.78052 48.39831 12730 ft 385 kts 223°
2026-05-05 13:52 29.76026 48.37757 12728 ft 385 kts 223°
2026-05-05 13:52 29.74090 48.35778 12565 ft 370 kts 223°
2026-05-05 13:53 29.72180 48.33830 12432 ft 350 kts 223°
2026-05-05 13:53 29.70461 48.32076 12302 ft 321 kts 223°
2026-05-05 13:53 29.68859 48.30440 12174 ft 295 kts 223°
2026-05-05 13:53 29.67345 48.28896 11788 ft 281 kts 223°
2026-05-05 13:54 29.65921 48.27442 11318 ft 272 kts 223°
2026-05-05 13:54 29.64555 48.26048 11048 ft 257 kts 222°
2026-05-05 13:54 29.63228 48.24693 10559 ft 253 kts 222°
2026-05-05 13:54 29.61922 48.23357 10004 ft 251 kts 222°
2026-05-05 13:55 29.60625 48.22034 9550 ft 247 kts 222°
2026-05-05 13:55 29.59341 48.20725 9182 ft 246 kts 222°
2026-05-05 13:55 29.58063 48.19422 8870 ft 247 kts 222°
2026-05-05 13:55 29.56785 48.18123 8541 ft 245 kts 222°
2026-05-05 13:56 29.55510 48.16827 8221 ft 244 kts 222°
2026-05-05 13:56 29.54238 48.15533 7910 ft 244 kts 222°
2026-05-05 13:56 29.52972 48.14247 7598 ft 243 kts 222°
2026-05-05 13:56 29.51711 48.12965 7286 ft 242 kts 221°
2026-05-05 13:57 29.50450 48.11684 6969 ft 242 kts 221°
2026-05-05 13:57 29.49191 48.10403 6661 ft 241 kts 221°
2026-05-05 13:57 29.47942 48.09134 6346 ft 240 kts 221°
2026-05-05 13:57 29.46699 48.07874 6069 ft 237 kts 221°
2026-05-05 13:58 29.45478 48.06634 5774 ft 233 kts 221°
2026-05-05 13:58 29.44297 48.05372 5437 ft 231 kts 229°
2026-05-05 13:58 29.43458 48.03812 5133 ft 231 kts 245°
2026-05-05 13:58 29.42831 48.02124 4829 ft 230 kts 244°
2026-05-05 13:59 29.41559 47.98753 4207 ft 230 kts 242°
2026-05-05 13:59 29.40921 47.97068 3901 ft 230 kts 243°
2026-05-05 14:00 29.39632 47.93660 3279 ft 232 kts 242°
2026-05-05 14:00 29.39001 47.91993 3091 ft 227 kts 242°
2026-05-05 14:00 29.38312 47.90438 3007 ft 210 kts 224°
2026-05-05 14:00 29.37138 47.89636 2933 ft 193 kts 186°
2026-05-05 14:01 29.35872 47.89862 2713 ft 185 kts 153°
2026-05-05 14:01 29.34766 47.90586 2434 ft 181 kts 154°
2026-05-05 14:01 29.33625 47.91161 2197 ft 178 kts 158°
2026-05-05 14:01 29.32505 47.91690 1971 ft 170 kts 155°
2026-05-05 14:02 29.31448 47.92228 1703 ft 161 kts 156°
2026-05-05 14:02 29.30487 47.92733 1495 ft 144 kts 156°
2026-05-05 14:02 29.29597 47.93203 1304 ft 140 kts 156°
2026-05-05 14:02 29.28714 47.93672 1127 ft 139 kts 153°
2026-05-05 14:03 29.27851 47.94130 968 ft 135 kts 154°
2026-05-05 14:03 29.26983 47.94592 799 ft 139 kts 153°
2026-05-05 14:03 29.26106 47.95058 626 ft 138 kts 152°
2026-05-05 14:03 29.25232 47.95523 448 ft 139 kts 151°
2026-05-05 14:04 29.24412 47.95959 279 ft 135 kts 152°
2026-05-05 14:04 29.23557 47.96404 212 ft 128 kts 152°
2026-05-05 14:04 29.23150 47.96625 163 ft 0 kts 147°
2026-05-05 14:05 29.23127 47.96643 163 ft 6 kts 147°
2026-05-05 14:05 29.23097 47.96717 163 ft 17 kts 77°
2026-05-05 14:05 29.23157 47.96845 165 ft 18 kts 41°
2026-05-05 14:05 29.23271 47.96815 164 ft 22 kts 334°
2026-05-05 14:06 29.23417 47.96739 164 ft 23 kts 335°
2026-05-05 14:06 29.23558 47.96739 164 ft 21 kts 29°
2026-05-05 14:06 29.23615 47.96767 165 ft 0 kts